Retour au catalogue

COSMOS 1823 DEB

ActifLEO
NORAD 39808·DEBRIS·🇷🇺 Russia

Lancé Feb 20, 1987 depuis Plesetsk Cosmodrome

Loading…

Prochains Passages (prochaines 24 heures)

TLE

PériméSource: Space-Track

Époque: Sep 4, 2026, 13:24 UTC

1 39808U 87020EG  26247.55895998  .00000060  00000-0  54559-3 0  9991
2 39808  73.6262 297.4514 0046991  59.7708 300.7978 12.44549987556208

Suivez COSMOS 1823 DEB en temps réel avec AllMySat

Download on the App Store